GAOFEN 12 (44819 NORAD) Tracking and Keplerian Element Data

This shows tracking and keplerian element data for the satellite.

Feedback or suggestion? Click here.




ElementValue
Catalog44819
NameGAOFEN 12
Epoch Orbit753
Epoch Day17.92936006
Epoch Year2020
RAAN41.9926
Inclination97.927
Eccentricity0.0002886
Argument of Perigee110.9644
Mean Anonmoly249.1122
Mean Motion14.80255526
Decay Rate0.00061736
L11 44819U 19082A 20017.92936006 .00061736 00000-0 80476-2 0 9991
L22 44819 97.9270 41.9926 0002886 110.9644 249.1122 14.80255526 7536

Live tracking and technical data element details for GAOFEN 12 (NORAD 44819). GAOFEN 12 can be tracked NOW for your location showing map with azimuth and elevation plus other details from your city location.

Track the satellite on the map from your city or location and see movement details for azimuth, elevation, latitude, longitude, range, height, and movement on the map or in text.







IsCatalogInMostPopularTable: catalog: 44819, numindb: 7
Update: records affected: 1



GetName: 44819 GAOFEN 12

Hit Count: updated at: Mon, 20 Jan 2020 03:14:42 GMT